Hereford, TX

10:46 PM CDT on August 30, 2016 (GMT -0500)
Hereford Municipal

Weather History for KHRX - November, 2013

Change the Weather History Date:

Friday, November 1, 2013

  Actual Average (KAMA) Record (KAMA)
Temperature  
Mean Temperature 51 °F 53 °F  
Max Temperature 64 °F 67 °F 85 °F (1994)
Min Temperature 37 °F 39 °F 19 °F (1951)
Degree Days  
Heating Degree Days 14 12  
Month to date heating degree days 12  
Since 1 July heating degree days 292  
Cooling Degree Days 0 0  
Month to date cooling degree days 0  
Year to date cooling degree days 1398  
Growing Degree Days 1 (Base 50)    
Moisture  
Dew Point 25 °F    
Average Humidity 41    
Maximum Humidity 58    
Minimum Humidity 22    
Precipitation  
Precipitation 0.00 in 0.04 in 2.01 in (1948)
Month to date precipitation 0.04  
Year to date precipitation 18.89  
Snow  
Snow 0.00 in 0.10 in 2.40 in (1899)
Month to date snowfall 0.1  
Since 1 July snowfall 0.3  
Since 1 September snowfall 0.3  
Snow Depth -    
Sea Level Pressure  
Sea Level Pressure 30.04 in    
Wind  
Wind Speed 11 mph (North)    
Max Wind Speed 22 mph    
Max Gust Speed 32 mph    
Visibility 10 miles    
Events      
T = Trace of Precipitation, MM = Missing Value Source: NWS Daily Summary

Daily Weather History Graph

Daily Weather History Graph

Search for Another Location

Airport or City:

Trip Planner

Search our weather history database for the weather conditions in past years. The results will help you decide how hot, cold, wet, or windy it might be!

Date:

Astronomy

Nov. 01, 2013 Rise Set
Actual Time 8:10 AM CDT 6:54 PM CDT
Civil Twilight 7:44 AM CDT 7:21 PM CDT
Nautical Twilight 7:14 AM CDT 7:50 PM CDT
Astronomical Twilight 6:44 AM CDT 8:20 PM CDT
Moon 6:09 AM CDT (11/1) 5:46 PM CDT (11/1)
Length of Visible Light 11h 36m
Length of Day
10h 44m
Waning Crescent, 4% of the Moon is Illuminated
Nov 1
Waning Crescent
Nov 3
New
Nov 9
First Quarter
Nov 17
Full
Nov 25
Last Quarter

Hourly Weather History & Observations

Time (CDT) Temp. Windchill Dew Point Humidity Pressure Visibility Wind Dir Wind Speed Gust Speed Precip Events Conditions
12:15 AM 44.6 °F 40.7 °F 21.7 °F 40% 29.83 in 10.0 mi SW 6.9 mph - N/A   Clear
12:35 AM 44.4 °F 39.5 °F 22.1 °F 41% 29.82 in 10.0 mi WSW 9.2 mph - N/A   Clear
12:55 AM 44.1 °F 40.1 °F 22.5 °F 42% 29.83 in 10.0 mi WSW 6.9 mph - N/A   Clear
1:15 AM 39.2 °F 33.0 °F 21.7 °F 50% 29.83 in 10.0 mi West 9.2 mph - N/A   Clear
1:35 AM 38.8 °F 33.2 °F 22.1 °F 51% 29.83 in 10.0 mi West 8.1 mph - N/A   Clear
1:55 AM 39.4 °F 34.5 °F 23.0 °F 52% 29.83 in 10.0 mi West 6.9 mph - N/A   Clear
2:15 AM 41.7 °F 37.3 °F 23.4 °F 48% 29.84 in 10.0 mi WNW 6.9 mph - N/A   Clear
2:35 AM 44.1 °F 37.4 °F 23.5 °F 44% 29.84 in 10.0 mi WNW 13.8 mph - N/A   Clear
2:55 AM 43.7 °F 38.6 °F 23.0 °F 44% 29.84 in 10.0 mi WNW 9.2 mph - N/A   Clear
3:15 AM 44.4 °F 37.9 °F 22.1 °F 41% 29.84 in 10.0 mi WNW 13.8 mph - N/A   Clear
3:35 AM 44.6 °F 38.1 °F 21.6 °F 40% 29.85 in 10.0 mi WNW 13.8 mph - N/A   Clear
3:55 AM 42.8 °F 37.0 °F 21.9 °F 44% 29.85 in 10.0 mi WNW 10.4 mph - N/A   Clear
4:15 AM 42.8 °F 37.5 °F 21.7 °F 43% 29.85 in 10.0 mi WNW 9.2 mph - N/A   Clear
4:35 AM 43.9 °F 36.2 °F 22.1 °F 42% 29.85 in 10.0 mi NW 17.3 mph - N/A   Clear
4:55 AM 43.7 °F 36.6 °F 21.9 °F 42% 29.86 in 10.0 mi NW 15.0 mph - N/A   Clear
5:15 AM 43.2 °F 36.2 °F 21.6 °F 42% 29.87 in 10.0 mi NW 13.8 mph - N/A   Clear
5:35 AM 42.4 °F 35.0 °F 22.1 °F 44% 29.88 in 10.0 mi NW 15.0 mph - N/A   Clear
5:55 AM 42.1 °F 34.9 °F 23.2 °F 47% 29.89 in 10.0 mi NW 13.8 mph - N/A   Clear
6:15 AM 41.7 °F 34.8 °F 24.4 °F 50% 29.90 in 10.0 mi NW 12.7 mph - N/A   Clear
6:35 AM 41.2 °F 34.1 °F 25.0 °F 53% 29.91 in 10.0 mi NW 12.7 mph - N/A   Clear
6:55 AM 41.0 °F 33.9 °F 25.7 °F 55% 29.93 in 10.0 mi NW 12.7 mph - N/A   Clear
7:15 AM 40.6 °F 33.4 °F 25.9 °F 56% 29.93 in 10.0 mi NW 12.7 mph - N/A   Clear
7:35 AM 40.5 °F 32.8 °F 25.9 °F 56% 29.94 in 10.0 mi NW 13.8 mph - N/A   Clear
7:55 AM 40.1 °F 32.7 °F 25.7 °F 56% 29.95 in 10.0 mi NNW 12.7 mph - N/A   Clear
8:15 AM 39.6 °F 33.0 °F 26.1 °F 58% 29.96 in 10.0 mi NNW 10.4 mph - N/A   Clear
8:35 AM 40.3 °F 33.0 °F 26.4 °F 58% 29.97 in 10.0 mi NNW 12.7 mph - N/A   Clear
8:55 AM 41.9 °F 34.6 °F 26.4 °F 54% 30.00 in 10.0 mi NNW 13.8 mph - N/A   Clear
9:15 AM 44.1 °F 37.4 °F 27.0 °F 51% 30.02 in 10.0 mi NNW 13.8 mph 20.7 mph N/A   Clear
9:35 AM 46.6 °F - 27.1 °F 47% 30.03 in 10.0 mi NNW 13.8 mph 19.6 mph N/A   Clear
9:55 AM 48.9 °F - 27.9 °F 44% 30.05 in 10.0 mi NNW 10.4 mph - N/A   Clear
10:15 AM 52.5 °F - 27.9 °F 39% 30.06 in 10.0 mi North 17.3 mph 21.9 mph N/A   Clear
10:35 AM 54.7 °F - 27.0 °F 34% 30.08 in 10.0 mi North 20.7 mph 27.6 mph N/A   Clear
10:55 AM 55.6 °F - 26.1 °F 32% 30.08 in 10.0 mi North 20.7 mph 24.2 mph N/A   Clear
11:15 AM 57.4 °F - 25.3 °F 29% 30.08 in 10.0 mi North 21.9 mph - N/A   Clear
11:35 AM 58.6 °F - 25.0 °F 28% 30.09 in 10.0 mi NNE 19.6 mph - N/A   Clear
11:55 AM 59.9 °F - 24.4 °F 26% 30.09 in 10.0 mi NNE 20.7 mph 26.5 mph N/A   Clear
12:15 PM 60.3 °F - 24.6 °F 26% 30.10 in 10.0 mi North 18.4 mph 27.6 mph N/A   Clear
12:35 PM 60.6 °F - 25.0 °F 26% 30.10 in 10.0 mi NNE 19.6 mph 32.2 mph N/A   Clear
12:55 PM 61.9 °F - 24.8 °F 24% 30.09 in 10.0 mi NNE 19.6 mph 25.3 mph N/A   Clear
1:15 PM 63.0 °F - 24.4 °F 23% 30.09 in 10.0 mi NNE 16.1 mph 23.0 mph N/A   Clear
1:35 PM 63.5 °F - 24.4 °F 23% 30.09 in 10.0 mi North 12.7 mph - N/A   Clear
1:55 PM 63.9 °F - 24.4 °F 22% 30.09 in 10.0 mi North 19.6 mph 24.2 mph N/A   Clear
2:15 PM 63.9 °F - 24.3 °F 22% 30.09 in 10.0 mi North 12.7 mph - N/A   Clear
2:35 PM 64.2 °F - 25.2 °F 23% 30.09 in 10.0 mi North 12.7 mph 25.3 mph N/A   Clear
2:55 PM 64.2 °F - 24.4 °F 22% 30.09 in 10.0 mi North 16.1 mph 21.9 mph N/A   Clear
3:15 PM 64.4 °F - 24.8 °F 22% 30.09 in 10.0 mi NNE 12.7 mph 20.7 mph N/A   Clear
4:55 PM 63.5 °F - 25.3 °F 23% 30.11 in 10.0 mi North 15.0 mph 19.6 mph N/A   Clear
5:15 PM 63.0 °F - 25.5 °F 24% 30.12 in 10.0 mi North 8.1 mph 11.5 mph N/A   Clear
5:35 PM 62.6 °F - 24.8 °F 24% 30.12 in 10.0 mi North 13.8 mph - N/A   Clear
5:55 PM 61.7 °F - 24.8 °F 24% 30.13 in 10.0 mi North 11.5 mph - N/A   Clear
6:15 PM 60.6 °F - 25.7 °F 26% 30.13 in 10.0 mi North 11.5 mph - N/A   Clear
6:35 PM 58.6 °F - 25.3 °F 28% 30.14 in 10.0 mi North 9.2 mph - N/A   Clear
6:55 PM 55.4 °F - 25.3 °F 31% 30.15 in 10.0 mi NNE 8.1 mph - N/A   Clear
7:15 PM 52.0 °F - 24.6 °F 35% 30.16 in 10.0 mi NNE 8.1 mph - N/A   Clear
7:35 PM 49.3 °F - 25.0 °F 39% 30.17 in 10.0 mi NNE 8.1 mph - N/A   Clear
7:55 PM 49.1 °F - 25.7 °F 40% 30.18 in 10.0 mi NNE 8.1 mph - N/A   Clear
8:15 PM 47.5 °F - 25.7 °F 43% 30.20 in 10.0 mi NNE 6.9 mph - N/A   Clear
8:35 PM 45.5 °F 41.3 °F 25.2 °F 45% 30.21 in 10.0 mi NNE 8.1 mph - N/A   Clear
8:55 PM 46.0 °F 41.9 °F 26.1 °F 46% 30.22 in 10.0 mi NNE 8.1 mph - N/A   Clear
9:15 PM 44.4 °F 40.0 °F 25.7 °F 48% 30.22 in 10.0 mi NNE 8.1 mph - N/A   Clear
9:35 PM 43.7 °F 41.1 °F 25.7 °F 49% 30.23 in 10.0 mi ENE 4.6 mph - N/A   Clear
9:55 PM 42.6 °F 39.9 °F 25.7 °F 51% 30.23 in 10.0 mi ENE 4.6 mph - N/A   Clear
10:15 PM 41.5 °F 39.6 °F 24.6 °F 51% 30.24 in 10.0 mi East 3.5 mph - N/A   Clear
10:35 PM 41.0 °F 38.0 °F 25.3 °F 54% 30.25 in 10.0 mi NE 4.6 mph - N/A   Clear
10:55 PM 40.1 °F 36.9 °F 24.3 °F 53% 30.26 in 10.0 mi NNE 4.6 mph - N/A   Clear
11:15 PM 39.0 °F 35.7 °F 24.6 °F 56% 30.26 in 10.0 mi NNE 4.6 mph - N/A   Clear
11:35 PM 38.3 °F - 23.5 °F 55% 30.27 in 10.0 mi Calm Calm - N/A   Clear
11:55 PM 37.8 °F 34.2 °F 23.5 °F 57% 30.27 in 10.0 mi NNE 4.6 mph - N/A   Clear